Погода в Трестне

Россия / Тверская область     57°31′46″N   35°58′00″E
темп.,
°C
ветер,
м/с
пор.,
м/с
влажн.,
%
обл.,
%
осадки,
мм/ч
давл.,
гПа
погр.,
м
19 апреля, пн
пн1900:00+6всв4117797 0.0 1026463
03:00+4всв3985100 0.0 1026427
06:00+4св4990100 0.0 1026434
09:00+5всв4879100 0.0 1027696
12:00+7всв5760100 0.0 1027978
15:00+10всв464897 0.0 10261642
18:00+8в474999 0.0 10261273
21:00+6в3858100 0.0 1026726
20 апреля, вт
вт2000:00+3в4116963 0.0 1026530
03:00+2в411685 0.0 1026487
06:00+1всв41071100 0.0 1025518
09:00+4в595941 0.0 1024769
12:00+5в5865100 0.0 1023998
15:00+7в5955100 0.1 10211285
18:00+3в41195100 0.3 1019787
21:00+3в41396100 1.8 1017666
21 апреля, ср
ср2100:00+3в51297100 1.1 1013934
03:00+2всв51294100 2.6 1009812
06:000всв41197100 3.2 1006558
09:00+1всв3898100 4.0 1003408
12:00+2св2499100 0.4 1001241
15:00+2з2399100 1.5 1001222
18:00+2зюз3893100 0.2 1003885
21:00+3юз51092100 0.3 1005723
22 апреля, чт
чт2200:00+3ююз5109282 0.1 1007625
03:00+3ююз41098100 0.3 1008678
06:00+3ююз41097100 0.1 1009582
09:00+6ююз51186100 0.1 1010586
12:00+9ююз586998 0.0 10121047
15:00+12ююз585871 0.1 10121678
18:00+11ю386492 0.1 1013409
21:00+6ююв39936 0.1 1014174
23 апреля, пт
пт2300:00+5ююв38965 0.0 1014161
03:00+5ююв38965 0.0 1013155
06:00+5ю3109792 0.0 1013240
09:00+10ююв51176100 0.0 1012514
12:00+14ю61466100 0.3 10101749
15:00+15ю6116194 1.3 10091792
18:00+13ю71472100 1.9 10071390
21:00+9юз41093100 5.6 1008796